Regional Weather Roundup
Issued by NWS San Diego, CA

Home | Current Version | Previous Version | Text Only | Print | Product List | Glossary On
Versions: 1 2 3 4 5 6 7 8 9 10 11 12 13 14 15 16 17 18 19 20 21 22 23 24 25 26 27 28 29 30 31 32 33 34 35 36 37 38 39 40 41 42 43 44 45 46 47 48 49 50
000
ASUS46 KSGX 212210
RWRSGX

SAN DIEGO HOURLY WEATHER ROUNDUP
NATIONAL WEATHER SERVICE SAN DIEGO CA
300 PM PDT THU AUG 21 2014

NOTE: "FAIR" INDICATES FEW OR NO CLOUDS BELOW 12,000 FEET WITH NO
SIGNIFICANT WEATHER AND/OR OBSTRUCTIONS TO VISIBILITY.

CAZ042-043-060-061-PZZ750-775-212300-

GREATER SAN DIEGO AREA

CITY           SKY/WX    TMP DP  RH WIND       PRES   REMARKS
LINDBERGH FLD  MOSUNNY   77  63  61 W15       29.91F
POINT LOMA       N/A     75  64  67 W24         N/A
NATIONAL CITY    N/A     78  67  68 W5        29.90F
CHULA VISTA      N/A     81  69  66 W16       29.83F
IMPERIAL BEACH MOSUNNY   76  64  66 W17       29.91F
BROWN FIELD    SUNNY     79  64  60 W12       29.91F
MIRAMAR MCAS   MOSUNNY   78  62  57 W15       29.90F
MONTGOMERY FLD SUNNY     80  63  55 NW12      29.90F

$$

NORTH SAN DIEGO COUNTY

CITY           SKY/WX    TMP DP  RH WIND       PRES   REMARKS
CAMP PENDLETON PTSUNNY   78  62  57 SW10      29.89F
OCEANSIDE AP   MOSUNNY   78  63  59 W10       29.89F
VISTA            N/A     78  66  65 W6        29.88F
CARLSBAD       MOSUNNY   73  63  70 VRB7      29.90F
DEL MAR          N/A     77  67  71 W1        29.93F
FALLBROOK        N/A     84  64  50 S7        29.88F
ESCONDIDO        N/A     84  66  53 W12       29.89F
SAN MARCOS       N/A     80  67  63 W9        29.88F
POWAY            N/A     85  67  54 SW9       29.88F
R. PENASQUITOS   N/A     80  65  60 SW12      29.90F

$$

EAST SAN DIEGO COUNTY

CITY           SKY/WX    TMP DP  RH WIND       PRES   REMARKS
RAMONA         MOSUNNY   85  61  44 W17       29.91F
GILLESPIE FLD  MOSUNNY   90  63  40 W14       29.88F
LA MESA          N/A     83  68  60 NW8       29.82F
JAMUL            N/A     86  67  53 W1        29.86F
DESCANSO N       N/A     74  54  49 SW3       29.79F
MT. LAGUNA OBS   N/A     58  47  67 W3        29.73F
CAMPO            N/A     73  59  61 N5        29.95F

$$

ORANGE COUNTY AND THE LOS ANGELES BASIN

CITY           SKY/WX    TMP DP  RH WIND       PRES   REMARKS
JOHN WAYNE AP  MOSUNNY   81  61  50 W8        29.90F
LAGUNA BEACH     N/A     76  66  70 SW8       29.88F
LAKE FOREST FR   N/A     84  61  46 W1        29.80F
SANTA ANA        N/A     83  68  59 CALM      29.85F
HUNTINGTON BCH   N/A     75  66  72 W13       29.93F
LOS ALAMITOS   MOSUNNY   80  63  57 SW12      29.90F
FULLERTON      SUNNY     85  61  44 S9        29.88F
LONG BEACH     SUNNY     82  62  50 VRB6      29.89F
L.A. AP        MOSUNNY   74  61  63 W14       29.92F
L.A. DOWNTOWN  SUNNY     77  62  59 VRB3      29.90F

$$

THE INLAND EMPIRE

CITY           SKY/WX    TMP DP  RH WIND       PRES   REMARKS
CHINO          MOSUNNY   91  60  35 W7        29.89F
ONTARIO        MOSUNNY   91  57  31 SW9       29.89F
RIVERSIDE AP   SUNNY     91  59  33 VRB7      29.89F
RIV CYN CREST    N/A     88  69  51 SW3       29.87F
MORENO VALLEY    N/A     89  65  44 CALM      29.10F
MARCH ARB      MOSUNNY   88  60  38 N5        29.92F
HORSETHIEF CYN   N/A     89  55  30 N6        29.90F
PERRIS           N/A     90  61  37 CALM      29.89F
MENIFEE          N/A     91  62  37 CALM      29.96F
HEMET EAST       N/A     86  52  30 CALM      29.90F
FRENCH VALLEY  FAIR      88  59  37 SW8       29.92F
TEMECULA         N/A     90  62  38 SW5       29.86F

$$

SAN BERNARDINO AND RIVERSIDE COUNTY MOUNTAINS

CITY           SKY/WX    TMP DP  RH WIND       PRES   REMARKS
BIG BEAR AP    MOSUNNY   61  48  63 W5        30.24F
BIG BEAR SHEA    N/A     63  44  49 N5        30.02F
ANGELUS OAKS     N/A     62  56  81 CALM      29.86F
PINE COVE        N/A     71  42  34 S3        29.84S

$$

SOUTHERN DESERT INCLUDING THE COACHELLA VALLEY

CITY           SKY/WX    TMP DP  RH WIND       PRES   REMARKS
PALM SPRINGS   LGT RAIN  92  51  24 S8        29.84F
THOUSAND PALMS   N/A     93  52  24 SW9       29.80F
PALM DESERT      N/A     86  61  42 CALM      27.69S
THERMAL        CLOUDY    98  48  18 W10       29.76F
BLYTHE         CLOUDY    86  64  47 SE20      29.82S THUNDER
IMPERIAL AP    LGT RAIN  73  64  73 E15G24    29.87F
EL CENTRO NAS  LGT RAIN  73  64  73 E25G31    29.85S
YUMA AZ        BLWGDUST  91  57  31 W23G35    29.83R THUNDER VSB 1/4
MEXICALI       TSTM      72  63  73 S17       29.86

$$

UPPER DESERT

CITY           SKY/WX    TMP DP  RH WIND       PRES   REMARKS
VICTORVILLE AP MOSUNNY   90  46  22 S14G22    29.97F
HESPERIA         N/A     85  55  34 SE6       29.98F
APPLE VALLEY     N/A     87  48  26 S14       30.03F
GRAY BUTTE AP  MOCLDY    88  42  20 VRB3      29.96F
PALMDALE       MOSUNNY   91  48  22 NW8G20    29.94F
LANCASTER      MOSUNNY   89  48  24 CALM      29.93F
EDWARDS AFB    MOSUNNY   91  47  22 VRB1      29.91F
DAGGETT        PTSUNNY   95  45  17 N8        29.89F
29 PALMS N     PTSUNNY   95  45  17 NE8       29.97F
NEEDLES        PTSUNNY   93  53  25 E18G26    29.92F

$$

REGIONAL REPORTS

CITY           SKY/WX    TMP DP  RH WIND       PRES   REMARKS
SANTA BARBARA  SUNNY     75  58  55 W12       29.93F
SANDBERG       SUNNY     83  44  25 S18G25    30.10F
MT. WILSON       N/A     77  52  41 MISG        N/A
LAS VEGAS NV   CLOUDY    84  52  33 S21G33    29.94S
PHOENIX AZ     PTSUNNY   86  57  37 VRB7      29.91F
TIJUANA        MOSUNNY   79  61  53 W14       29.93F
ENSENADA NW      N/A     75  32  20 W8        29.88

$$

OFFSHORE ISLANDS

CITY           SKY/WX    TMP DP  RH WIND       PRES   REMARKS
CATALINA ARPT  SUNNY     69  58  67 W12       29.96F
SAN CLEMENTE I MOSUNNY   73  59  61 W12G18    29.95F
SAN NICOLAS IS MOSUNNY   70  58  65 SW15      29.95F

$$

MARINE AND OFFSHORE BUOY REPORTS

STATION/POSITION SKY/WX   TEMP    WIND        PRES    SWELL
                          AIR SEA DIR/SP/G            HT/PER/DIR
                          (F)     (DEG/KT/KT) (MB)    (FT/S/D)
TANNER BANKS               67 69  320/  6/  8 1014.4F   5/190/11
S CLEMENTE BASIN           68 71  290/ 10/ 12 1013.3F   5/190/12
SAN NICOLAS IS.               65                N/A     3/170/11
SO. S. ROSA ISLA           64 68  300/ 12/ 14 1013.9F   5/11
W. S. BARBARA CH           63 64  300/ 12/ 14 1013.9F   3/190/12
M. S. BARBARA CH           64 65  270/ 10/ 10 1014.5
S. MONICA BASIN            67 72  260/  8/ 10 1013.4F   3/190/11
S PEDRO CHANNEL               70                N/A     2/160/11
DANA POINT                    72                N/A     5/180/12
CMP PENDLETON NS              73                N/A     3/200/11
OCEANSIDE OFFSHR              73                N/A     3/190/12
TORREY PINES OTR              74                N/A     2/180/12
LA JOLLA 1                 72 68  310/ 10/ 11 1012.9F
MISSION BAY BUOY              71                N/A     3/190/11
SAN DIEGO BAY                 74              1013.2F
POINT LOMA SOUTH              74                N/A     3/190/11

$$



USA.gov is the U.S. government's official web portal to all federal, state and local government web resources and services.